2024/01/31 00:00:00,15.0,-0.6
2024/01/31 00:10:00,15.0,-0.6
2024/01/31 00:20:00,15.0,-0.5
2024/01/31 00:30:00,15.0,-0.4
2024/01/31 00:40:00,15.0,-0.3
2024/01/31 00:50:00,15.0,-0.3
2024/01/31 01:00:00,15.0, 0.0
2024/01/31 01:10:00,15.0,-0.2
2024/01/31 01:20:00,14.9, 0.1
2024/01/31 01:30:00,14.9,-0.3
2024/01/31 01:40:00,14.9,-0.2
2024/01/31 01:50:00,14.9,-0.4
2024/01/31 02:00:00,14.8,-0.2
2024/01/31 02:10:00,14.8,-0.3
2024/01/31 02:20:00,14.9,-0.4
2024/01/31 02:30:00,14.8,-0.5
2024/01/31 02:40:00,14.8,-0.5
2024/01/31 02:50:00,14.8,-0.2
2024/01/31 03:00:00,14.8, 0.0
2024/01/31 03:10:00,14.8,-0.1
2024/01/31 03:20:00,14.7, 0.1
2024/01/31 03:30:00,14.7, 0.2
2024/01/31 03:40:00,14.7, 0.1
2024/01/31 03:50:00,14.7, 0.4
2024/01/31 04:00:00,14.7, 0.3
2024/01/31 04:10:00,14.6, 0.4
2024/01/31 04:20:00,14.6, 0.1
2024/01/31 04:30:00,14.6, 0.0
2024/01/31 04:40:00,14.6, 0.0
2024/01/31 04:50:00,14.5, 0.3
2024/01/31 05:00:00,14.5, 0.2
2024/01/31 05:10:00,14.5, 0.3
2024/01/31 05:20:00,14.4, 0.4
2024/01/31 05:30:00,14.4, 0.5
2024/01/31 05:40:00,14.4, 0.4
2024/01/31 05:50:00,14.4, 0.5
2024/01/31 06:00:00,14.4, 0.8
2024/01/31 06:10:00,14.4, 0.6
2024/01/31 06:20:00,14.3, 0.7
2024/01/31 06:30:00,14.3, 0.7
2024/01/31 06:40:00,14.3, 0.9
2024/01/31 06:50:00,14.3, 0.8
2024/01/31 07:00:00,14.2, 0.9
2024/01/31 07:10:00,14.2, 0.9
2024/01/31 07:20:00,14.1, 1.0
2024/01/31 07:30:00,14.1, 1.1
2024/01/31 07:40:00,14.1, 1.1
2024/01/31 07:50:00,14.0, 1.1
2024/01/31 08:00:00,14.0, 1.1
2024/01/31 08:10:00,13.9, 1.5
2024/01/31 08:20:00,13.9, 1.8
2024/01/31 08:30:00,13.9, 1.8
2024/01/31 08:40:00,13.8, 1.8
2024/01/31 08:50:00,13.8, 2.2
2024/01/31 09:00:00,13.8, 2.1
2024/01/31 09:10:00,13.8, 1.6
2024/01/31 09:20:00,13.7, 2.1
2024/01/31 09:30:00,13.7, 2.2
2024/01/31 09:40:00,13.7, 1.9
2024/01/31 09:50:00,13.7, 2.1
2024/01/31 10:00:00,13.6, 2.2
2024/01/31 10:10:00,13.6, 2.3
2024/01/31 10:20:00,13.6, 2.6
2024/01/31 10:30:00,13.4, 2.8
2024/01/31 10:40:00,13.5, 2.6
2024/01/31 10:50:00,13.5, 2.5
2024/01/31 11:00:00,13.6, 2.4
2024/01/31 11:10:00,13.5, 2.7
2024/01/31 11:20:00,13.5, 2.6
2024/01/31 11:30:00,13.6, 2.7
2024/01/31 11:40:00,13.6, 2.5
2024/01/31 11:50:00,13.6, 2.9
2024/01/31 12:00:00,13.5, 2.9
2024/01/31 12:10:00,13.4, 3.1
2024/01/31 12:20:00,13.4, 2.8
2024/01/31 12:30:00,13.4, 2.9
2024/01/31 12:40:00,13.2, 2.8
2024/01/31 12:50:00,13.2, 2.8
2024/01/31 13:00:00,13.3, 2.5
2024/01/31 13:10:00,13.2, 2.6
2024/01/31 13:20:00,13.1, 2.8
2024/01/31 13:30:00,13.2, 3.1
2024/01/31 13:40:00,13.1, 2.9
2024/01/31 13:50:00,13.1, 3.0
2024/01/31 14:00:00,13.1, 2.8
2024/01/31 14:10:00,13.1, 2.7
2024/01/31 14:20:00,13.1, 2.8
2024/01/31 14:30:00,13.1, 2.6
2024/01/31 14:40:00,13.1, 2.8
2024/01/31 14:50:00,13.0, 2.8
2024/01/31 15:00:00,12.9, 2.4
2024/01/31 15:10:00,12.9, 2.8
2024/01/31 15:20:00,12.9, 2.9
2024/01/31 15:30:00,12.9, 2.6
2024/01/31 15:40:00,12.8, 2.7
2024/01/31 15:50:00,12.8, 2.8
2024/01/31 16:00:00,12.8, 2.5
2024/01/31 16:10:00,12.8, 2.6
2024/01/31 16:20:00,12.6, 2.5
2024/01/31 16:30:00,12.6, 2.6
2024/01/31 16:40:00,12.3, 2.4
2024/01/31 16:50:00,12.2, 2.7
2024/01/31 17:00:00,12.2, 2.4
2024/01/31 17:10:00,12.1, 2.4
2024/01/31 17:20:00,12.2, 2.2
2024/01/31 17:30:00,12.2, 2.1
2024/01/31 17:40:00,12.3, 2.0
2024/01/31 17:50:00,12.2, 2.0
2024/01/31 18:00:00,12.1, 2.1
2024/01/31 18:10:00,12.1, 2.2
2024/01/31 18:20:00,12.1, 1.9
2024/01/31 18:30:00,12.0, 2.0
2024/01/31 18:40:00,11.9, 2.2
2024/01/31 18:50:00,11.8, 1.8
2024/01/31 19:00:00,11.7, 2.0
2024/01/31 19:10:00,11.6, 2.0
2024/01/31 19:20:00,11.6, 2.1
2024/01/31 19:30:00,11.5, 2.0
2024/01/31 19:40:00,11.5, 2.1
2024/01/31 19:50:00,11.5, 1.9
2024/01/31 20:00:00,11.5, 2.2
2024/01/31 20:10:00,11.3, 2.0
2024/01/31 20:20:00,11.2, 2.0
2024/01/31 20:30:00,11.1, 1.5
2024/01/31 20:40:00,11.2, 2.3
2024/01/31 20:50:00,11.3, 2.0
2024/01/31 21:00:00,11.1, 2.2
2024/01/31 21:10:00,11.1, 2.1
2024/01/31 21:20:00,11.3, 2.1
2024/01/31 21:30:00,11.2, 2.0
2024/01/31 21:40:00,11.3, 1.9
2024/01/31 21:50:00,11.3, 1.8
2024/01/31 22:00:00,11.2, 1.9
2024/01/31 22:10:00,11.1, 1.8
2024/01/31 22:20:00,11.2, 1.6
2024/01/31 22:30:00,11.3, 2.0
2024/01/31 22:40:00,11.1, 1.7
2024/01/31 22:50:00,11.0, 1.7
2024/01/31 23:00:00,11.0, 1.8
2024/01/31 23:10:00,11.0, 1.6
2024/01/31 23:20:00,10.8, 1.9
2024/01/31 23:30:00,10.8, 1.8
2024/01/31 23:40:00,10.8, 1.9
2024/01/31 23:50:00,10.6, 1.8
